FENGYUN 1C DEB, 31516

Orbit data source: Space-Track

FENGYUN 1C DEB, 31516 is space debris in SSO originally from a launch on Mon, 10 May 1999 UTC launched from the Taiyaun Space Center, China (TSC). Fengyun 1C debris stems from the Chinese weather satellite Fengyun-1C, which was intentionally destroyed by a Chinese anti-satellite missile in 2007. This event dramatically increased the amount of space debris, with thousands of trackable fragments posing hazards to satellites and human spaceflight. The Fengyun 1C debris cloud has become a focal point in discussions about space sustainability and the need for international regulations to prevent the creation of new debris.

Loading next visibility...
Identifier
31516, 1999-025BXF
Orbit
SSO
Country
Flag of CNCN / PRC
Related business
Manufacturer
Unknown
Mission
Spacecraft
Bus & Motor
Unknown
Mass
Unknown
Launch date (UTC)
1999-05-10 (27 years ago)
Launch vehicle
Unknown
Launch site
Taiyaun Space Center, China (TSC)
Object type
Payload
Rocket body
Debris
Shape & HBR
Unknown shape, 0.1 m
Radar Cross Section
Small (<0.1 m²)

Expand to show TLE details & history
Last TLE update: 2 days ago

TLE from 2 days ago
0 FENGYUN 1C DEB
1 31516U 99025BXF 26261.20116066  .00000634  00000-0  25430-3 0  9990
2 31516  98.8604  24.6542 0148817 148.8410 333.6767 14.25899857  4480
Epoch: 2026-09-18T04:49Z
TLE epoch observation values (Epoch: 2026-09-18T04:49:40.281Z)
Latitude
57.26415°
Longitude
149.06521°
Altitude
719.525 km
Speed
7.551 km/s
True Right ascension
14h 34m 26s
True Declination
57° 06' 24"
Sunlit
Object was in daylight at epoch
Visualization orbit readout
Latitude
Unknown
Longitude
Unknown
Altitude
Unknown
Speed
Unknown
Apparent Right ascension
Unknown
Apparent Declination
Unknown
Sunlit
N/A
Visualization observer readout
Local Sidereal Time
07:00:14
Azimuth
Unknown
Elevation
Unknown
Doppler factor
Unknown
Orbital elements
Apogee altitude
909.488 km
Perigee altitude
695.764 km
Semi-major axis
7,180.763 km
Eccentricity
0.01488
Inclination
98.8604°
RAAN
24.6542°
Arg. of periapsis
148.841°
True anomaly
332.90771°
Mean anomaly
333.6767°
Eccentric anomaly
333.2935°
Mean motion
3.56687 °/min
Orbital period
100.93 mins
BSTAR
0.0002543
Loading maneuver chart data...
Computing Atmospheric mass density...

Documentation

Showing up to 5 results
|